{"data":{"norad_id":87557,"epoch":"2026-09-15T22:33:56.898432Z","epoch_age_seconds":408348,"freshness":"STALE","line1":"1 87557U          26258.94024188  .00003757  00000+0  80882-2 0  9990","line2":"2 87557 101.8510 157.8684 0056234 104.8513 255.8840 13.29972203601851","mean_motion":13.29972203,"eccentricity":0.0056234,"inclination_deg":101.851,"raan_deg":157.8684,"arg_perigee_deg":104.8513,"mean_anomaly_deg":255.884,"bstar":0.0080882,"rev_number":60185,"period_min":108.27293959617,"perigee_km":1104.5519858553,"apogee_km":1189.1842132087,"semimajor_km":7525.005099532,"source":"CELESTRAK","updated_at":"2026-09-20T09:00:32.476060Z"}}